| time (UTC) | temp F | wind direction | speed knots | gust knots | rain 1hr in | rain 24hr in | rain mn in | humidity % | barometer mb |
| 20260507210505 | 62 | 0 | 0.0 | 0.0 | 0.00 | 0.47 | 0.31 | 59 | 1004.7 |
| 20260507210114 | 61 | 215 | 1.7 | 0.0 | 0.00 | 0.00 | 0.49 | 59 | 1100.1 |
| 20260507210005 | 62 | 0 | 0.0 | 0.0 | 0.00 | 0.47 | 0.31 | 56 | 1004.6 |
| 20260507205505 | 62 | 0 | 0.0 | 0.0 | 0.00 | 0.47 | 0.31 | 56 | 1004.6 |
| 20260507205006 | 63 | 0 | 0.0 | 0.0 | 0.00 | 0.47 | 0.31 | 57 | 1004.5 |
| 20260507204613 | 61 | 177 | 3.5 | 0.0 | 0.00 | 0.00 | 0.49 | 59 | 1100.1 |
| 20260507204505 | 63 | 0 | 0.0 | 0.0 | 0.00 | 0.47 | 0.31 | 57 | 1004.6 |
| 20260507203106 | 60 | 175 | 3.5 | 0.0 | 0.00 | 0.00 | 0.49 | 62 | 1100.1 |
| 20260507202505 | 63 | 0 | 0.0 | 0.0 | 0.00 | 0.47 | 0.31 | 60 | 1004.7 |
| 20260507201601 | 60 | 121 | 3.5 | 0.0 | 0.00 | 0.00 | 0.49 | 60 | 1100.1 |
| 20260507201505 | 63 | 0 | 0.0 | 0.0 | 0.00 | 0.47 | 0.31 | 59 | 1004.5 |
| 20260507200106 | 60 | 221 | 3.5 | 0.0 | 0.00 | 0.00 | 0.49 | 63 | 1100.1 |
| 20260507200005 | 63 | 0 | 0.0 | 0.0 | 0.00 | 0.47 | 0.31 | 62 | 1004.6 |
| 20260507195505 | 63 | 0 | 0.0 | 0.0 | 0.00 | 0.47 | 0.31 | 63 | 1004.7 |
| 20260507194518 | 60 | 204 | 4.3 | 0.0 | 0.00 | 0.00 | 0.49 | 65 | 1100.1 |
| 20260507193505 | 62 | 0 | 0.0 | 0.0 | 0.00 | 0.47 | 0.31 | 67 | 1005.2 |
| 20260507193114 | 59 | 158 | 6.1 | 0.0 | 0.00 | 0.00 | 0.49 | 68 | 1100.1 |
| 20260507191612 | 59 | 171 | 4.3 | 0.0 | 0.00 | 0.00 | 0.49 | 70 | 1100.1 |
| 20260507190116 | 58 | 171 | 5.2 | 0.0 | 0.00 | 0.00 | 0.49 | 71 | 1100.1 |
| 20260507184622 | 58 | 190 | 6.1 | 0.0 | 0.00 | 0.00 | 0.49 | 70 | 1100.1 |
| 20260507184006 | 63 | 0 | 0.0 | 0.0 | 0.00 | 0.47 | 0.31 | 67 | 1006.0 |
| 20260507183505 | 63 | 0 | 0.0 | 0.0 | 0.00 | 0.47 | 0.31 | 68 | 1006.1 |
| 20260507183117 | 60 | 221 | 4.3 | 0.0 | 0.00 | 0.00 | 0.49 | 68 | 1100.1 |
| 20260507183006 | 63 | 0 | 0.0 | 0.0 | 0.00 | 0.47 | 0.31 | 66 | 1006.1 |
| 20260507182505 | 63 | 0 | 0.0 | 0.0 | 0.00 | 0.47 | 0.31 | 68 | 1006.2 |
| 20260507181615 | 58 | 155 | 5.2 | 0.0 | 0.00 | 0.00 | 0.49 | 68 | 1100.1 |
| 20260507181505 | 61 | 0 | 0.0 | 0.0 | 0.00 | 0.47 | 0.31 | 67 | 1006.2 |
| 20260507181005 | 62 | 0 | 0.0 | 0.0 | 0.00 | 0.47 | 0.31 | 68 | 1006.3 |
| 20260507180505 | 62 | 0 | 0.0 | 0.0 | 0.00 | 0.47 | 0.31 | 67 | 1006.3 |
| 20260507180123 | 59 | 186 | 3.5 | 0.0 | 0.00 | 0.00 | 0.49 | 70 | 1100.1 |
| 20260507175506 | 62 | 0 | 0.0 | 0.0 | 0.00 | 0.47 | 0.31 | 67 | 1006.3 |
| 20260507175005 | 62 | 0 | 0.0 | 0.0 | 0.00 | 0.47 | 0.31 | 68 | 1006.4 |
| 20260507174612 | 60 | 216 | 4.3 | 0.0 | 0.00 | 0.00 | 0.49 | 67 | 1100.1 |
| 20260507174505 | 62 | 0 | 0.0 | 0.0 | 0.00 | 0.47 | 0.31 | 68 | 1006.4 |
| 20260507173024 | 59 | 216 | 2.6 | 0.0 | 0.00 | 0.00 | 0.49 | 69 | 1100.1 |
| 20260507173006 | 61 | 0 | 0.0 | 0.0 | 0.00 | 0.47 | 0.31 | 69 | 1006.5 |
| 20260507171634 | 58 | 216 | 3.5 | 0.0 | 0.00 | 0.00 | 0.49 | 67 | 1100.1 |
| 20260507171505 | 61 | 0 | 0.0 | 0.0 | 0.00 | 0.47 | 0.31 | 66 | 1006.7 |
| 20260507171006 | 60 | 0 | 0.0 | 0.0 | 0.00 | 0.47 | 0.31 | 66 | 1006.7 |
| 20260507170505 | 61 | 0 | 0.0 | 0.0 | 0.00 | 0.47 | 0.31 | 63 | 1006.8 |
| 20260507170136 | 60 | 269 | 2.6 | 0.0 | 0.00 | 0.00 | 0.49 | 59 | 1100.1 |
| 20260507170005 | 61 | 0 | 0.0 | 0.0 | 0.00 | 0.47 | 0.31 | 59 | 1006.8 |
| 20260507165006 | 61 | 0 | 0.0 | 0.0 | 0.00 | 0.47 | 0.31 | 60 | 1006.9 |
| 20260507164629 | 60 | 269 | 1.7 | 0.0 | 0.00 | 0.00 | 0.49 | 60 | 1100.1 |
| 20260507164005 | 62 | 0 | 0.0 | 0.0 | 0.00 | 0.47 | 0.31 | 61 | 1006.8 |
| 20260507163506 | 61 | 0 | 0.0 | 0.0 | 0.00 | 0.47 | 0.31 | 67 | 1006.8 |
| 20260507163132 | 58 | 304 | 3.5 | 0.0 | 0.00 | 0.00 | 0.49 | 62 | 1100.1 |
| 20260507163006 | 59 | 0 | 0.0 | 0.0 | 0.00 | 0.47 | 0.31 | 65 | 1007.0 |
| 20260507162006 | 62 | 0 | 0.0 | 0.0 | 0.00 | 0.47 | 0.31 | 61 | 1007.0 |
| 20260507161626 | 58 | 5 | 3.5 | 0.0 | 0.00 | 0.00 | 0.49 | 64 | 1100.1 |
| 20260507160119 | 58 | 338 | 3.5 | 0.0 | 0.00 | 0.00 | 0.49 | 64 | 1100.1 |
| 20260507154616 | 57 | 5 | 3.5 | 0.0 | 0.00 | 0.00 | 0.49 | 66 | 1100.1 |
| 20260507154505 | 59 | 0 | 0.0 | 0.0 | 0.00 | 0.47 | 0.31 | 68 | 1007.5 |
| 20260507154006 | 60 | 0 | 0.0 | 0.0 | 0.00 | 0.47 | 0.31 | 64 | 1007.6 |
| 20260507153505 | 61 | 0 | 0.0 | 0.0 | 0.00 | 0.47 | 0.31 | 66 | 1007.8 |
| 20260507153110 | 56 | 333 | 4.3 | 0.0 | 0.00 | 0.00 | 0.49 | 67 | 1100.1 |
| 20260507153006 | 61 | 0 | 0.0 | 0.0 | 0.00 | 0.47 | 0.31 | 69 | 1007.8 |
| 20260507151614 | 56 | 320 | 5.2 | 0.0 | 0.00 | 0.00 | 0.49 | 68 | 1100.1 |
| 20260507151006 | 58 | 0 | 0.0 | 0.0 | 0.00 | 0.47 | 0.31 | 73 | 1007.8 |
| 20260507150114 | 55 | 324 | 4.3 | 0.0 | 0.00 | 0.00 | 0.49 | 70 | 1100.1 |
| 20260507150006 | 57 | 0 | 0.0 | 0.0 | 0.00 | 0.47 | 0.31 | 76 | 1007.8 |
| 20260507144515 | 54 | 295 | 3.5 | 0.0 | 0.00 | 0.00 | 0.49 | 75 | 1100.1 |
| 20260507144006 | 54 | 0 | 0.0 | 0.0 | 0.00 | 0.47 | 0.31 | 81 | 1007.9 |
| 20260507143506 | 54 | 0 | 0.0 | 0.0 | 0.00 | 0.47 | 0.31 | 83 | 1007.7 |
| 20260507143013 | 54 | 283 | 2.6 | 0.0 | 0.00 | 0.00 | 0.49 | 77 | 1100.1 |
| 20260507142505 | 53 | 0 | 0.0 | 0.0 | 0.00 | 0.47 | 0.31 | 87 | 1008.0 |
| 20260507141620 | 53 | 360 | 2.6 | 0.0 | 0.00 | 0.00 | 0.49 | 80 | 1100.1 |
| 20260507141505 | 52 | 0 | 0.0 | 0.0 | 0.00 | 0.47 | 0.31 | 91 | 1008.0 |
| 20260507140505 | 51 | 0 | 0.0 | 0.0 | 0.00 | 0.47 | 0.31 | 94 | 1008.1 |
| 20260507140130 | 52 | 276 | 4.3 | 0.0 | 0.00 | 0.00 | 0.49 | 82 | 1100.1 |
| 20260507140005 | 51 | 0 | 0.0 | 0.0 | 0.00 | 0.47 | 0.31 | 95 | 1008.2 |
| 20260507135505 | 50 | 0 | 0.0 | 0.0 | 0.00 | 0.47 | 0.31 | 95 | 1008.1 |
| 20260507134520 | 50 | 288 | 3.5 | 0.0 | 0.00 | 0.00 | 0.49 | 84 | 1100.1 |
| 20260507133505 | 49 | 0 | 0.0 | 0.0 | 0.00 | 0.47 | 0.31 | 96 | 1008.2 |
| 20260507133116 | 50 | 286 | 1.7 | 0.0 | 0.00 | 0.00 | 0.49 | 86 | 1100.1 |
| 20260507133005 | 49 | 0 | 0.0 | 0.0 | 0.00 | 0.47 | 0.31 | 95 | 1008.3 |
| 20260507132505 | 49 | 0 | 0.0 | 0.0 | 0.01 | 0.47 | 0.31 | 95 | 1008.1 |
| 20260507132005 | 49 | 0 | 0.0 | 0.0 | 0.01 | 0.47 | 0.31 | 96 | 1007.9 |
| 20260507131623 | 49 | 360 | 1.7 | 0.0 | 0.00 | 0.00 | 0.49 | 86 | 1100.1 |
| 20260507131505 | 49 | 0 | 0.0 | 0.0 | 0.01 | 0.47 | 0.31 | 96 | 1008.1 |
| 20260507130505 | 49 | 0 | 0.0 | 0.0 | 0.01 | 0.47 | 0.31 | 96 | 1008.0 |
| 20260507130111 | 49 | 315 | 1.7 | 0.0 | 0.00 | 0.00 | 0.49 | 88 | 1100.1 |
| 20260507130005 | 49 | 0 | 0.0 | 0.0 | 0.01 | 0.47 | 0.31 | 96 | 1007.9 |
| 20260507125505 | 49 | 0 | 0.0 | 0.0 | 0.01 | 0.47 | 0.31 | 96 | 1008.0 |
| 20260507125006 | 48 | 0 | 0.0 | 0.0 | 0.01 | 0.47 | 0.31 | 95 | 1008.3 |
| 20260507124636 | 49 | 315 | 0.9 | 0.0 | 0.00 | 0.00 | 0.49 | 89 | 1100.1 |
| 20260507124505 | 48 | 0 | 0.0 | 0.0 | 0.01 | 0.47 | 0.31 | 95 | 1008.0 |
| 20260507124006 | 48 | 0 | 0.0 | 0.0 | 0.02 | 0.47 | 0.31 | 96 | 1008.2 |
| 20260507123128 | 48 | 310 | 1.7 | 0.0 | 0.00 | 0.00 | 0.48 | 90 | 1100.1 |
| 20260507122005 | 48 | 0 | 0.0 | 0.0 | 0.02 | 0.46 | 0.30 | 95 | 1008.3 |
| 20260507121624 | 48 | 310 | 0.9 | 0.0 | 0.00 | 0.00 | 0.47 | 90 | 1100.1 |
| 20260507121005 | 48 | 358 | 0.0 | 0.0 | 0.02 | 0.46 | 0.30 | 95 | 1008.1 |
| 20260507120122 | 48 | 310 | 0.9 | 0.0 | 0.00 | 0.00 | 0.46 | 90 | 1100.1 |
| 20260507120006 | 48 | 359 | 0.0 | 0.0 | 0.03 | 0.46 | 0.30 | 95 | 1008.1 |
| 20260507115006 | 48 | 358 | 0.0 | 0.0 | 0.03 | 0.46 | 0.30 | 95 | 1008.1 |
| 20260507114612 | 48 | 32 | 1.7 | 0.0 | 0.00 | 0.00 | 0.46 | 90 | 1100.1 |
| 20260507114006 | 48 | 0 | 0.0 | 0.0 | 0.03 | 0.45 | 0.29 | 95 | 1008.1 |
| 20260507113002 | 48 | 283 | 1.7 | 0.0 | 0.00 | 0.00 | 0.44 | 90 | 1100.1 |
| 20260507112505 | 48 | 0 | 0.0 | 0.0 | 0.02 | 0.44 | 0.28 | 95 | 1008.3 |
| 20260507112006 | 49 | 0 | 0.0 | 0.0 | 0.02 | 0.44 | 0.28 | 95 | 1008.2 |
| 20260507111559 | 49 | 294 | 2.6 | 0.0 | 0.00 | 0.00 | 0.42 | 90 | 1100.1 |
| 20260507111005 | 49 | 0 | 0.0 | 0.0 | 0.03 | 0.44 | 0.28 | 95 | 1007.4 |
| 20260507110008 | 49 | 328 | 3.5 | 0.0 | 0.00 | 0.00 | 0.42 | 90 | 1100.1 |
| 20260507110005 | 49 | 0 | 0.0 | 0.0 | 0.03 | 0.43 | 0.27 | 95 | 1007.4 |
| 20260507104559 | 49 | 312 | 3.5 | 0.0 | 0.00 | 0.00 | 0.41 | 91 | 1100.1 |
| 20260507104506 | 49 | 0 | 0.0 | 0.0 | 0.02 | 0.42 | 0.26 | 95 | 1007.4 |
| 20260507104005 | 49 | 0 | 0.0 | 0.0 | 0.02 | 0.42 | 0.26 | 95 | 1007.5 |
| 20260507103505 | 49 | 0 | 0.0 | 0.0 | 0.02 | 0.42 | 0.26 | 95 | 1007.4 |
| 20260507103112 | 49 | 273 | 2.6 | 0.0 | 0.00 | 0.00 | 0.39 | 91 | 1100.1 |
| 20260507103006 | 49 | 0 | 0.0 | 0.0 | 0.03 | 0.42 | 0.26 | 95 | 1007.4 |
| 20260507102505 | 49 | 0 | 0.0 | 0.0 | 0.04 | 0.42 | 0.26 | 95 | 1007.0 |
| 20260507101604 | 49 | 312 | 3.5 | 0.0 | 0.00 | 0.00 | 0.38 | 91 | 1100.1 |
| 20260507101506 | 49 | 0 | 0.0 | 0.0 | 0.03 | 0.41 | 0.25 | 95 | 1007.2 |
| 20260507100141 | 49 | 313 | 3.5 | 0.0 | 0.00 | 0.00 | 0.37 | 91 | 1100.1 |
| 20260507100005 | 49 | 0 | 0.0 | 0.0 | 0.04 | 0.40 | 0.24 | 95 | 1007.2 |
| 20260507095505 | 50 | 0 | 0.0 | 0.0 | 0.04 | 0.40 | 0.24 | 95 | 1007.2 |
| 20260507095006 | 50 | 0 | 0.0 | 0.0 | 0.04 | 0.40 | 0.24 | 95 | 1006.8 |
| 20260507094616 | 50 | 340 | 3.5 | 0.0 | 0.00 | 0.00 | 0.36 | 91 | 1100.1 |
| 20260507093114 | 51 | 246 | 3.5 | 0.0 | 0.00 | 0.00 | 0.35 | 91 | 1100.1 |
| 20260507092505 | 52 | 358 | 0.0 | 0.0 | 0.08 | 0.38 | 0.22 | 95 | 1007.1 |
| 20260507092006 | 52 | 0 | 0.0 | 0.0 | 0.14 | 0.38 | 0.22 | 95 | 1006.9 |
| 20260507091503 | 52 | 246 | 4.3 | 0.0 | 0.00 | 0.00 | 0.33 | 92 | 1100.1 |
| 20260507091006 | 52 | 0 | 0.0 | 0.0 | 0.21 | 0.37 | 0.21 | 95 | 1006.4 |
| 20260507090139 | 52 | 246 | 1.7 | 0.0 | 0.00 | 0.00 | 0.31 | 92 | 1100.1 |
| 20260507085506 | 53 | 0 | 0.0 | 0.0 | 0.20 | 0.36 | 0.20 | 95 | 1006.8 |
| 20260507084629 | 53 | 246 | 4.3 | 0.0 | 0.00 | 0.00 | 0.28 | 92 | 1100.1 |
| 20260507084505 | 54 | 0 | 0.0 | 0.0 | 0.19 | 0.35 | 0.19 | 95 | 1006.3 |
| 20260507083132 | 54 | 246 | 1.7 | 0.0 | 0.00 | 0.00 | 0.23 | 92 | 1100.1 |
| 20260507082005 | 53 | 359 | 0.0 | 0.0 | 0.08 | 0.24 | 0.08 | 95 | 1006.9 |
| 20260507081502 | 53 | 223 | 0.9 | 0.0 | 0.00 | 0.00 | 0.04 | 92 | 1100.1 |
| 20260507080014 | 53 | 223 | 0.9 | 0.0 | 0.00 | 0.00 | 0.00 | 92 | 1100.1 |
| 20260507080005 | 53 | 359 | 0.0 | 0.0 | 0.00 | 0.16 | 0.00 | 95 | 1005.8 |
| 20260507074523 | 53 | 223 | 0.9 | 0.0 | 0.00 | 0.00 | 0.00 | 92 | 1100.1 |
| 20260507074505 | 53 | 358 | 0.0 | 0.0 | 0.00 | 0.16 | 0.00 | 95 | 1005.7 |
| 20260507073014 | 53 | 223 | 0.9 | 0.0 | 0.00 | 0.00 | 0.00 | 92 | 1100.1 |
| 20260507073005 | 54 | 359 | 0.0 | 0.0 | 0.00 | 0.16 | 0.00 | 95 | 1005.9 |
| 20260507071620 | 53 | 223 | 1.7 | 0.0 | 0.00 | 0.00 | 0.00 | 92 | 1100.1 |
| 20260507070108 | 54 | 223 | 0.9 | 0.0 | 0.00 | 0.00 | 0.00 | 92 | 1100.1 |
| 20260507070010 | 54 | 0 | 0.0 | 0.0 | 0.00 | 0.16 | 0.00 | 95 | 1006.0 |
| 20260507065505 | 54 | 0 | 0.0 | 0.0 | 0.00 | 0.16 | 0.00 | 95 | 1006.0 |
| 20260507065005 | 54 | 0 | 0.0 | 0.0 | 0.00 | 0.16 | 0.00 | 95 | 1006.0 |
| 20260507064559 | 54 | 223 | 0.0 | 0.0 | 0.00 | 0.00 | 0.00 | 92 | 1100.1 |
| 20260507064005 | 54 | 0 | 0.0 | 0.0 | 0.00 | 0.16 | 0.00 | 95 | 1005.8 |
| 20260507063136 | 53 | 223 | 0.9 | 0.0 | 0.00 | 0.00 | 0.00 | 92 | 1100.1 |
| 20260507063005 | 54 | 0 | 0.0 | 0.0 | 0.00 | 0.16 | 0.00 | 95 | 1005.9 |
| 20260507061624 | 53 | 223 | 0.9 | 0.0 | 0.00 | 0.00 | 0.00 | 91 | 1100.1 |
| 20260507061505 | 53 | 358 | 0.0 | 0.0 | 0.00 | 0.16 | 0.00 | 95 | 1006.4 |
| 20260507061006 | 53 | 0 | 0.0 | 0.0 | 0.00 | 0.16 | 0.00 | 95 | 1006.2 |
| 20260507060505 | 53 | 358 | 0.0 | 0.0 | 0.00 | 0.16 | 0.00 | 95 | 1006.4 |
| 20260507060014 | 53 | 223 | 0.9 | 0.0 | 0.00 | 0.00 | 0.00 | 91 | 1100.1 |
| 20260507060005 | 53 | 0 | 0.0 | 0.0 | 0.00 | 0.16 | 0.00 | 95 | 1006.3 |
| 20260507055505 | 53 | 357 | 0.0 | 0.0 | 0.00 | 0.16 | 0.00 | 95 | 1006.4 |
| 20260507055006 | 53 | 0 | 0.0 | 0.0 | 0.00 | 0.16 | 0.00 | 95 | 1006.3 |
| 20260507054609 | 53 | 223 | 0.9 | 0.0 | 0.00 | 0.00 | 0.00 | 91 | 1100.1 |
| 20260507054505 | 53 | 0 | 0.0 | 0.0 | 0.00 | 0.16 | 0.00 | 95 | 1006.4 |
| 20260507054006 | 53 | 0 | 0.0 | 0.0 | 0.00 | 0.16 | 0.00 | 95 | 1006.6 |
| 20260507053505 | 53 | 358 | 0.0 | 0.0 | 0.00 | 0.16 | 0.00 | 95 | 1006.7 |
| 20260507053010 | 53 | 223 | 1.7 | 0.0 | 0.00 | 0.00 | 0.00 | 91 | 1100.1 |
| 20260507051600 | 54 | 223 | 1.7 | 0.0 | 0.00 | 0.00 | 0.00 | 91 | 1100.1 |
| 20260507051504 | 54 | 0 | 0.0 | 0.0 | 0.00 | 0.16 | 0.00 | 95 | 1006.9 |
| 20260507051005 | 54 | 358 | 0.0 | 0.0 | 0.00 | 0.16 | 0.00 | 95 | 1006.9 |
| 20260507050134 | 54 | 223 | 1.7 | 0.0 | 0.00 | 0.00 | 0.00 | 91 | 1100.1 |
| 20260507050006 | 54 | 0 | 0.0 | 0.0 | 0.00 | 0.16 | 0.00 | 95 | 1007.1 |
| 20260507044625 | 54 | 209 | 0.9 | 0.0 | 0.00 | 0.00 | 0.00 | 91 | 1100.1 |
| 20260507044505 | 54 | 359 | 0.0 | 0.0 | 0.00 | 0.16 | 0.00 | 95 | 1006.9 |
| 20260507044005 | 54 | 357 | 0.0 | 0.0 | 0.00 | 0.16 | 0.00 | 95 | 1006.9 |
| 20260507043505 | 54 | 357 | 0.0 | 0.0 | 0.00 | 0.16 | 0.00 | 95 | 1006.9 |
| 20260507043127 | 54 | 190 | 1.7 | 0.0 | 0.00 | 0.00 | 0.20 | 91 | 1100.1 |
| 20260507042005 | 54 | 359 | 0.0 | 0.0 | 0.00 | 0.16 | 0.00 | 95 | 1007.1 |
| 20260507041622 | 54 | 220 | 1.7 | 0.0 | 0.00 | 0.00 | 0.20 | 91 | 1100.1 |
| 20260507041505 | 54 | 359 | 0.0 | 0.0 | 0.00 | 0.16 | 0.00 | 95 | 1007.1 |
| 20260507041005 | 54 | 359 | 0.0 | 0.0 | 0.00 | 0.16 | 0.00 | 95 | 1007.0 |
| 20260507040120 | 54 | 200 | 1.7 | 0.0 | 0.00 | 0.00 | 0.20 | 91 | 1100.1 |
| 20260507035504 | 54 | 359 | 0.0 | 0.0 | 0.00 | 0.16 | 0.16 | 95 | 1007.2 |
| 20260507034648 | 54 | 227 | 1.7 | 0.0 | 0.00 | 0.00 | 0.20 | 91 | 1100.1 |
| 20260507034505 | 54 | 0 | 0.0 | 0.0 | 0.00 | 0.16 | 0.16 | 95 | 1007.4 |
| 20260507033103 | 54 | 227 | 2.6 | 0.0 | 0.00 | 0.00 | 0.20 | 91 | 1100.1 |
| 20260507032006 | 54 | 359 | 0.0 | 0.0 | 0.00 | 0.16 | 0.16 | 94 | 1007.3 |
| 20260507031606 | 54 | 222 | 3.5 | 0.0 | 0.00 | 0.00 | 0.20 | 91 | 1100.1 |
| 20260507031505 | 54 | 0 | 0.0 | 0.0 | 0.00 | 0.16 | 0.16 | 94 | 1007.3 |
| 20260507030505 | 54 | 357 | 0.0 | 0.0 | 0.00 | 0.16 | 0.16 | 94 | 1006.9 |
| 20260507030004 | 54 | 227 | 3.5 | 0.0 | 0.00 | 0.00 | 0.20 | 91 | 1100.1 |
| 20260507025005 | 55 | 358 | 0.0 | 0.0 | 0.00 | 0.16 | 0.16 | 94 | 1006.9 |
| 20260507024553 | 55 | 242 | 2.6 | 0.0 | 0.00 | 0.00 | 0.20 | 91 | 1100.1 |
| 20260507023143 | 55 | 242 | 2.6 | 0.0 | 0.00 | 0.00 | 0.20 | 91 | 1100.1 |
| 20260507023005 | 55 | 358 | 0.0 | 0.0 | 0.00 | 0.16 | 0.16 | 94 | 1007.3 |
| 20260507022504 | 55 | 358 | 0.0 | 0.0 | 0.00 | 0.16 | 0.16 | 94 | 1007.5 |
| 20260507021631 | 55 | 238 | 3.5 | 0.0 | 0.00 | 0.00 | 0.20 | 91 | 1100.1 |
| 20260507021504 | 55 | 358 | 0.0 | 0.0 | 0.00 | 0.16 | 0.16 | 94 | 1007.6 |
| 20260507020504 | 55 | 359 | 0.0 | 0.0 | 0.00 | 0.16 | 0.16 | 94 | 1007.7 |
| 20260507020056 | 55 | 234 | 3.5 | 0.0 | 0.00 | 0.00 | 0.20 | 91 | 1100.1 |
| 20260507014505 | 55 | 221 | 4.3 | 0.0 | 0.00 | 0.00 | 0.20 | 91 | 1100.1 |
| 20260507013505 | 56 | 358 | 0.0 | 0.0 | 0.02 | 0.16 | 0.16 | 94 | 1008.1 |
| 20260507013141 | 55 | 227 | 4.3 | 0.0 | 0.00 | 0.00 | 0.20 | 90 | 1100.1 |
| 20260507013005 | 56 | 358 | 0.0 | 0.0 | 0.02 | 0.16 | 0.16 | 94 | 1008.1 |
| 20260507012505 | 56 | 0 | 0.0 | 0.0 | 0.02 | 0.16 | 0.16 | 94 | 1008.2 |
| 20260507012005 | 56 | 358 | 0.0 | 0.0 | 0.03 | 0.16 | 0.16 | 94 | 1008.2 |
| 20260507011642 | 56 | 240 | 4.3 | 0.0 | 0.00 | 0.00 | 0.20 | 90 | 1100.1 |
| 20260507011504 | 56 | 357 | 0.0 | 0.0 | 0.04 | 0.16 | 0.16 | 94 | 1008.1 |
| 20260507011005 | 56 | 358 | 0.0 | 0.0 | 0.04 | 0.16 | 0.16 | 94 | 1008.2 |
| 20260507010138 | 56 | 225 | 5.2 | 0.0 | 0.00 | 0.00 | 0.20 | 90 | 1100.1 |
| 20260507005504 | 56 | 357 | 0.0 | 0.0 | 0.06 | 0.16 | 0.16 | 94 | 1008.1 |
| 20260507004512 | 56 | 236 | 4.3 | 0.0 | 0.00 | 0.00 | 0.19 | 90 | 1100.1 |
| 20260507004505 | 56 | 358 | 0.0 | 0.0 | 0.07 | 0.15 | 0.15 | 94 | 1008.1 |
| 20260507003505 | 56 | 358 | 0.0 | 0.0 | 0.08 | 0.14 | 0.14 | 94 | 1008.1 |
| 20260507003105 | 56 | 246 | 4.3 | 0.0 | 0.00 | 0.00 | 0.18 | 90 | 1100.1 |
| 20260507002504 | 56 | 359 | 0.0 | 0.0 | 0.10 | 0.14 | 0.14 | 93 | 1008.2 |
| 20260507001502 | 56 | 226 | 4.3 | 0.0 | 0.00 | 0.00 | 0.16 | 90 | 1100.1 |
| 20260507000140 | 56 | 166 | 4.3 | 0.0 | 0.00 | 0.00 | 0.14 | 90 | 1100.1 |
| 20260507000005 | 56 | 358 | 0.0 | 0.0 | 0.10 | 0.11 | 0.11 | 93 | 1008.1 |
| 20260506235504 | 56 | 357 | 0.0 | 0.0 | 0.09 | 0.10 | 0.10 | 93 | 1008.1 |
| 20260506235005 | 56 | 357 | 0.0 | 0.0 | 0.09 | 0.10 | 0.10 | 93 | 1008.1 |
| 20260506234637 | 56 | 240 | 4.3 | 0.0 | 0.00 | 0.00 | 0.12 | 90 | 1100.1 |
| 20260506234505 | 56 | 0 | 0.0 | 0.0 | 0.08 | 0.08 | 0.08 | 93 | 1008.1 |
| 20260506233128 | 56 | 236 | 4.3 | 0.0 | 0.00 | 0.00 | 0.06 | 89 | 1100.1 |
| 20260506231625 | 56 | 236 | 5.2 | 0.0 | 0.00 | 0.00 | 0.05 | 89 | 1100.1 |
| 20260506230505 | 56 | 0 | 0.0 | 0.0 | 0.02 | 0.02 | 0.02 | 91 | 1008.1 |
| 20260506230142 | 55 | 216 | 4.3 | 0.0 | 0.00 | 0.00 | 0.03 | 88 | 1100.1 |
| 20260506225007 | 56 | 0 | 0.0 | 0.0 | 0.01 | 0.01 | 0.01 | 90 | 1008.3 |
| 20260506224636 | 56 | 219 | 6.1 | 0.0 | 0.00 | 0.00 | 0.01 | 87 | 1100.1 |
| 20260506224005 | 57 | 358 | 0.0 | 0.0 | 0.00 | 0.00 | 0.00 | 90 | 1008.4 |
| 20260506223504 | 57 | 0 | 0.0 | 0.0 | 0.00 | 0.00 | 0.00 | 90 | 1008.5 |
| 20260506223134 | 56 | 246 | 5.2 | 0.0 | 0.00 | 0.00 | 0.01 | 86 | 1100.1 |
| 20260506222504 | 57 | 358 | 0.0 | 0.0 | 0.00 | 0.00 | 0.00 | 89 | 1008.6 |
| 20260506221631 | 57 | 250 | 5.2 | 0.0 | 0.00 | 0.00 | 0.00 | 85 | 1100.1 |
| 20260506221504 | 58 | 358 | 0.0 | 0.0 | 0.00 | 0.00 | 0.00 | 88 | 1008.6 |
| 20260506220124 | 58 | 234 | 5.2 | 0.0 | 0.00 | 0.00 | 0.00 | 83 | 1100.1 |
| 20260506220005 | 58 | 0 | 0.0 | 0.0 | 0.00 | 0.00 | 0.00 | 87 | 1008.5 |
| 20260506215505 | 58 | 0 | 0.0 | 0.0 | 0.00 | 0.00 | 0.00 | 87 | 1008.4 |
| 20260506214612 | 58 | 231 | 5.2 | 0.0 | 0.00 | 0.00 | 0.00 | 83 | 1100.1 |
| 20260506213505 | 58 | 0 | 0.0 | 0.0 | 0.00 | 0.00 | 0.00 | 87 | 1008.6 |
| 20260506213112 | 58 | 215 | 5.2 | 0.0 | 0.00 | 0.00 | 0.00 | 83 | 1100.1 |
| 20260506212005 | 58 | 0 | 0.0 | 0.0 | 0.00 | 0.00 | 0.00 | 87 | 1009.0 |
| 20260506211616 | 58 | 227 | 5.2 | 0.0 | 0.00 | 0.00 | 0.00 | 83 | 1100.1 |
| 20260506211505 | 58 | 0 | 0.0 | 0.0 | 0.00 | 0.00 | 0.00 | 87 | 1009.0 |